Вернуться в каталог

JILIN-1 GAOFEN 03D-49

АктивенНаукаSSO
NORAD 54694·PAYLOAD·🇨🇳 China
Это название спутника еще не подтверждено официальными источниками.

Запущен Dec 9, 2022 с Yellow Sea Launch Area

Loading…

Ближайшие Пролёты (ближайшие 24 часа)

TLE

СвежийSource: Space-Track

Эпоха: Sep 14, 2026, 15:21 UTC

1 54694U 22167N   26257.64010888  .00009999  00000-0  25912-3 0  9991
2 54694  97.6878  71.9711 0005501 163.7856 196.3565 15.39234054209246

Отслеживайте JILIN-1 GAOFEN 03D-49 в реальном времени с AllMySat

Download on the App Store